Home > Weather > Fall River > Past weeks

Flag for U.S.A. Weather for the Past 2 Weeks in Fall River, Massachusetts, U.S.A.

Now
20 °F

Light snow. Ice fog.


Feels Like: 20 °F
Forecast: 1 / 20 °F
Wind: No wind

Location: New Bedford Regional Airport

Current Time: Feb 13, 2016 at 2:42:03 AM

Latest Report: Feb 13, 2016 at 1:53 AM


Visibility: 4 mi

Pressure: 29.85 "Hg

Humidity: 89%

Dew point: 17 °F

Location of Fall RiverLocation

Historic Weather in Fall River — Graph

°F

Fall River Temperature Yesterday

Maximum temperature yesterday: 23 °F (at 5:53 PM)
Minimum temperature yesterday: 8 °F (at 5:53 AM)
Average temperature yesterday: 16 °F

High & Low Weather Summary for the Past Weeks

 TemperatureHumidityPressure
High60 °F (Feb 1, 11:53 AM)100% (Jan 29, 7:53 AM)30.41 "Hg (Jan 29, 7:53 AM)
Low8 °F (Feb 12, 5:53 AM)31% (Feb 1, 5:53 PM)29.35 "Hg (Jan 29, 12:53 PM)
Average35 °F75%29.91 "Hg
* Reported Jan 29 12:53 AM — Feb 13 12:56 AM, Fall River, Weather by CustomWeather, © 2016

Note: Actual official high and low records may vary slightly from our data, if they occured in-between our weather recording intervals... More about our weather records

Advertising

Fall River Weather History for the Previous 24 Hours

 ConditionsComfort  
Time TempWeatherWind HumidityBarometerVisibility
12:56 AM
Sat, Feb 13
20 °FLight snow. Ice fog.No wind89%29.87 "Hg3 mi
11:53 PM
Fri, Feb 12
20 °FLight snow. Ice fog.No wind89%29.90 "Hg2 mi
10:53 PM21 °FLight snow. Overcast.6 mph68%29.92 "Hg7 mi
9:53 PM22 °FOvercast.5 mph62%29.93 "Hg10 mi
8:53 PM22 °FOvercast.No wind62%29.95 "Hg10 mi
7:53 PM22 °FOvercast.No wind66%29.99 "Hg10 mi
6:53 PM22 °FOvercast.No wind62%30.02 "Hg10 mi
5:53 PM23 °FOvercast.6 mph55%30.04 "Hg10 mi
3:53 PM22 °FPartly sunny.7 mph52%30.07 "Hg10 mi
2:53 PM22 °FSunny.7 mph44%30.08 "Hg10 mi
1:53 PM21 °FSunny.9 mph45%30.10 "Hg10 mi
12:53 PM20 °FSunny.9 mph45%30.13 "Hg10 mi
11:53 AM19 °FSunny.7 mph43%30.16 "Hg10 mi
10:53 AM17 °FSunny.8 mph47%30.19 "Hg10 mi
9:53 AM15 °FSunny.13 mph49%30.21 "Hg10 mi
8:53 AM12 °FSunny.12 mph53%30.22 "Hg10 mi
7:53 AM10 °FSunny.10 mph58%30.22 "Hg10 mi
6:53 AM9 °FSunny.13 mph52%30.21 "Hg10 mi
5:53 AM8 °FClear.12 mph54%30.18 "Hg10 mi
4:53 AM9 °FClear.13 mph50%30.16 "Hg10 mi
3:53 AM9 °FClear.14 mph47%30.15 "Hg10 mi
2:53 AM10 °FClear.15 mph45%30.13 "Hg10 mi
Weather by CustomWeather, © 2016

See weather overviewHow to use our weather pages